This is the latest recevied weather packets stored in our database for station/object N1IJV-10. If no packets are shown the sender has not sent any weather packets the latest 10 day(s).
| Time | Temp. | Humidity | Pressure | Rain* | Wind** | Luminosity | Snow |
|---|---|---|---|---|---|---|---|
| 1777639560 | 4.44° C | 99% | 1016 hPa | 0 mm | - | 93 W/m² | - |
| 1777639256 | 4.44° C | 99% | 1015.8 hPa | 0 mm | - | 58 W/m² | - |
| 1777638952 | 4.44° C | 99% | 1015.9 hPa | 0 mm | - | 66 W/m² | - |
| 1777638648 | 4.44° C | 99% | 1015.6 hPa | 0 mm | - | 59 W/m² | - |
| 1777638345 | 4.44° C | 99% | 1015.8 hPa | 0 mm | - | 55 W/m² | - |
| 1777638041 | 4.44° C | 99% | 1015.7 hPa | 0 mm | - | 63 W/m² | - |
| 1777637738 | 4.44° C | 99% | 1015.6 hPa | 0 mm | - | 49 W/m² | - |
| 1777637434 | 3.89° C | 99% | 1015.7 hPa | 0 mm | - | 36 W/m² | - |
| 1777637131 | 3.89° C | 99% | 1015.5 hPa | 0 mm | - | 33 W/m² | - |
| 1777636822 | 3.89° C | 99% | 1015.3 hPa | 0 mm | - | 34 W/m² | - |
| 1777636518 | 3.89° C | 99% | 1015.1 hPa | 0 mm | - | 39 W/m² | - |
| 1777636215 | 3.33° C | 99% | 1015.1 hPa | 0 mm | - | 32 W/m² | - |
| 1777635909 | 3.33° C | 99% | 1015 hPa | 0 mm | - | 28 W/m² | - |
| 1777635605 | 3.33° C | 99% | 1014.9 hPa | 0 mm | - | 24 W/m² | - |
| 1777635302 | 3.33° C | 99% | 1014.8 hPa | 0 mm | - | 22 W/m² | - |
| 1777634999 | 2.78° C | 99% | 1014.8 hPa | 0 mm | - | 22 W/m² | - |
| 1777634695 | 2.78° C | 99% | 1014.8 hPa | 0 mm | - | 20 W/m² | - |
| 1777634393 | 3.33° C | 99% | 1015 hPa | 0 mm | - | 15 W/m² | - |
| 1777634090 | 3.33° C | 99% | 1014.8 hPa | 0 mm | - | 12 W/m² | - |
| 1777633786 | 3.33° C | 99% | 1014.8 hPa | 0 mm | - | 9 W/m² | - |
| 1777633484 | 3.33° C | 99% | 1014.9 hPa | 0 mm | - | 7 W/m² | - |
| 1777633182 | 3.33° C | 99% | 1014.7 hPa | 0 mm | - | 4 W/m² | - |
| 1777632878 | 3.33° C | 99% | 1014.7 hPa | 0 mm | - | 2 W/m² | - |
| 1777632574 | 3.33° C | 99% | 1014.6 hPa | 0 mm | - | 0 W/m² | - |
| 1777632272 | 3.89° C | 99% | 1014.8 hPa | 0 mm | - | 0 W/m² | - |
* Rain latest hour (hover to see other rain measurements)
** Current wind speed in m/s (hover to see current wind gust speed)